User: anonymous   Login
Location: Unspecified
(0.0000°N, 0.0000°E)
Time: 03:39:23
(UTC+00:00)
Language:

USA 158 - Orbit

View from above orbital plane
View from above orbital plane
View from above satellite
View from above satellite

Ground track
Ground track

The orbit data is extracted from the following two-line orbital elements,

1 26770U 01020A   17112.56354583 0.00000000  00000-0  00000-0 0    09
2 26770   6.2341  47.1060 0013957  34.5289 325.5960  0.98841210    07
Epoch (UTC): 22 April 2017 13:31:30
Eccentricity: 0.0013957
inclination: 6.2341°
perigee height: 36132 km
apogee height: 36251 km
right ascension of ascending node: 47.1060°
argument of perigee: 34.5289°
revolutions per day: 0.98841210
mean anomaly at epoch: 325.5960°
orbit number at epoch: 0

The dashed part of the orbit path shows where the satellite is in the earth's shadow,  

DLR